Miscellaneous Local Product
Issued by NWS North Platte, NE

Home | Current Version | Previous Version | Text Only | Print | Product List | Glossary On
Versions: 1 2 3 4 5 6 7 8 9 10 11 12 13 14 15 16 17 18 19 20 21 22 23 24 25 26 27 28 29 30 31 32 33 34 35 36 37 38 39 40 41 42 43 44 45 46 47 48 49 50
000
AXUS43 KLBF 271910
MISLBF


WESTERN AND NORTH CENTRAL NEBRASKA HOURLY WEATHER ROUNDUP
NATIONAL WEATHER SERVICE NORTH PLATTE NE
200 PM CDT MON MAR 27 2017

NOTE: "FAIR" INDICATES FEW OR NO CLOUDS BELOW 12,000 FEET WITH NO
SIGNIFICANT WEATHER AND/OR OBSTRUCTIONS TO VISIBILITY.

NOTE: STATIONS NOT REPORTING VARIABLES SUCH AS SKY/WEATHER OR
PRESSURE ARE PROVIDED BY RAWS AND APRS NETWORKS AND ARE NOT UNDER
NATIONAL WEATHER SERVICE QUALITY CONTROL.

...OBSERVATIONS IN AND NEAR THE EASTERN PANHANDLE OF NEBRASKA...

CITY           SKY/WX    TMP DP  RH WIND       PRES   REMARKS
PINE RIDGE     PTSUNNY   61  35  37 S9        29.83F
CHADRON        SUNNY     61  35  37 VRB5      29.82F
ALLIANCE       SUNNY     63  27  25 SW13      29.84F
SIDNEY         MOSUNNY   62  35  36 S18       29.88F
CRESCENT LAKE    N/A     62  34  35 SW10G20     N/A
$$

...OBSERVATIONS IN NORTHERN NEBRASKA AND FAR SOUTHERN SOUTH DAKOTA...

CITY           SKY/WX    TMP DP  RH WIND       PRES   REMARKS
WINNER         PTSUNNY   58  39  49 S6        29.91F
VALENTINE      SUNNY     57  40  52 S14       29.90F
THEDFORD       SUNNY     52  46  79 SE7       29.92F
AINSWORTH      SUNNY     54  43  67 S6        29.92F
O`NEILL        SUNNY     54  37  52 SE6       29.95F
ORD            CLOUDY    53  40  61 VRB3      29.94F
BROKEN BOW     CLOUDY    51  43  74 CALM      29.95F
VALENTINE NWR    N/A     49  42  76 S8          N/A
HALSEY           N/A     50  44  80 CALM        N/A
BUTTE            N/A     55  34  45 E3          N/A
CHAMBERS         N/A     57  40  53 W3          N/A
EWING            N/A     53  39  60 SE3         N/A
$$

...OBSERVATIONS IN SOUTHWEST NEBRASKA AND FAR NORTHEAST COLORADO...

CITY           SKY/WX    TMP DP  RH WIND       PRES   REMARKS
WRAY           FAIR      64  34  32 S7        29.90
HOLYOKE        FAIR      64  34  32 S5        29.90F
IMPERIAL       SUNNY     61  38  42 VRB3      29.91F
OGALLALA       SUNNY     62  35  35 SW3       29.90F
NORTH PLATTE   SUNNY     61  42  49 SE6       29.91F
MCCOOK         SUNNY     61  41  47 S6        29.91F
LEXINGTON      CLOUDY    49  44  84 CALM      29.96F
STAPLETON        N/A     58  44  60 CALM        N/A
GOTHENBURG       N/A     53  42  67 E7          N/A
CALLAWAY         N/A     51  47  85 S7          N/A
$$

...OBSERVATIONS IN CENTRAL LINCOLN COUNTY AREA...

CITY           SKY/WX    TMP DP  RH WIND       PRES   REMARKS
N.P. AIRPORT   SUNNY     61  42  49 SE6       29.91F
N.P. DOWNTOWN    N/A     60  44  56 CALM        N/A
N.P. SOUTHEAST   N/A     61  43  50 CALM        N/A
N.P. HILLCREST   N/A     58  44  60 SW5         N/A
$$

...SOME OBSERVATIONS FROM AROUND THE REGION...

CITY           SKY/WX    TMP DP  RH WIND       PRES   REMARKS
DENVER         MOSUNNY   61  28  28 E12       29.85F
LIMON          MOSUNNY   57  33  40 S12G24    29.91F
ASPEN          CLOUDY    50  19  29 N7        29.87F
LARAMIE        CLOUDY    47  23  38 S10       29.89F
CASPER         MOSUNNY   52  22  30 W5        29.84F
CHEYENNE       CLOUDY    52  26  36 S8        29.89F
SCOTTSBLUFF    CLOUDY    63  26  24 W12G22    29.84F
GRAND ISLAND   CLOUDY    48  42  80 CALM      29.98F
OMAHA          CLOUDY    50  39  66 N7        29.98F
SIOUX FALLS    MOSUNNY   57  38  48 NE7       29.95F
PIERRE         MOSUNNY   57  34  41 SE12      29.91F
RAPID CITY     PTSUNNY   49  42  77 VRB5      29.87F
BISMARCK       SUNNY     63  37  38 NW6       29.92F
KANSAS CITY    DRIZZLE   50  48  93 N14       29.93F
HILL CITY      MOSUNNY   54  46  74 E7        29.96F
WICHITA        CLOUDY    51  45  79 N10       29.97S
DODGE CITY     SUNNY     62  37  39 CALM      29.94F
OKLAHOMA CITY  PTSUNNY   61  47  59 W6        29.96F
DALLAS         MOSUNNY   68  54  60 NW10      29.91F
AMARILLO       SUNNY     64  36  35 VRB6      29.96F
$$




USA.gov is the U.S. government's official web portal to all federal, state and local government web resources and services.